Paganella, Italy

7:50 PM CEST on April 29, 2017 (GMT +0200)
Paganella

Weather History for LIVP - January, 2014

Change the Weather History Date:

Thursday, January 2, 2014

  Actual Average Record
Temperature  
Mean Temperature 26 °F -  
Max Temperature 32 °F 28 °F 41 °F (2015)
Min Temperature 20 °F 19 °F 12 °F (2008)
Degree Days  
Heating Degree Days 39    
Moisture  
Dew Point 22 °F    
Average Humidity 82    
Maximum Humidity 93    
Minimum Humidity 63    
Precipitation  
Precipitation 0.00 in 0.04 in - ()
Sea Level Pressure  
Sea Level Pressure 29.80 in    
Wind  
Wind Speed 22 mph ()    
Max Wind Speed 32 mph    
Max Gust Speed -    
Visibility 0.0 miles    
Events Fog , Snow    
Averages and records for this station are not official NWS values.
T = Trace of Precipitation, MM = Missing Value Source: Averaged Metar Reports

Daily Weather History Graph

Daily Weather History Graph

Search for Another Location

Airport or City:

Trip Planner

Search our weather history database for the weather conditions in past years. The results will help you decide how hot, cold, wet, or windy it might be!

Date:

Astronomy

Jan. 02, 2014 Rise Set
Actual Time 7:58 AM CET 4:41 PM CET
Civil Twilight 7:23 AM CET 5:16 PM CET
Nautical Twilight 6:46 AM CET 5:53 PM CET
Astronomical Twilight 6:09 AM CET 6:30 PM CET
Moon 8:20 AM CET (1/2) 6:24 PM CET (1/2)
Length of Visible Light 9h 52m
Length of Day
8h 43m
New Moon, 2% of the Moon is Illuminated
Jan 2
New Moon
Jan 8
First Quarter
Jan 16
Full
Jan 24
Last Quarter
Jan 30
New

Hourly Weather History & Observations

Time (CET) Temp. Windchill Dew Point Humidity Pressure Visibility Wind Dir Wind Speed Gust Speed Precip Events Conditions
12:00 AM 22 °F - 16 °F 68%  in 31 mi SSW 20.7 mph - -   Scattered Clouds
12:55 AM 21.2 °F 4.9 °F 15.8 °F 80% 29.86 in 0.1 mi SW 23.0 mph - N/A Fog Light Freezing Fog
1:00 AM 21 °F - 16 °F 71%  in 0 mi SW 23.0 mph - - Fog Heavy Fog
1:55 AM 21.2 °F 5.2 °F 17.6 °F 86% 29.83 in 0.0 mi SSW 21.9 mph - N/A Fog Light Freezing Fog
2:00 AM 21 °F - 18 °F 85%  in 0 mi SSW 21.9 mph - - Fog Heavy Fog
2:55 AM 21.2 °F 3.9 °F 19.4 °F 93% 29.83 in 0.0 mi SSW 26.5 mph - N/A Fog Light Freezing Fog
3:00 AM 21 °F - 19 °F 87%  in 0 mi SSW 26.5 mph - - Fog Heavy Fog
3:55 AM 21.2 °F 4.2 °F 19.4 °F 93% 29.83 in 0.0 mi SW 25.3 mph - N/A Fog Light Freezing Fog
4:00 AM 21 °F - 19 °F 89%  in 0 mi SW 25.3 mph - - Fog Heavy Fog
4:55 AM 23.0 °F 7.2 °F 21.2 °F 93% 29.80 in 0.0 mi WSW 23.0 mph - N/A Fog Light Freezing Fog
5:00 AM 23 °F - 21 °F 87%  in 0 mi WSW 23.0 mph - - Fog Heavy Fog
5:55 AM 23.0 °F 6.9 °F 21.2 °F 93% 29.80 in 0.0 mi SW 24.2 mph - N/A Fog Light Freezing Fog
6:00 AM 22 °F - 21 °F 92%  in 0 mi SW 24.2 mph - - Fog Heavy Fog
6:55 AM 24.8 °F 7.9 °F 21.2 °F 86% 29.77 in 0.0 mi South 29.9 mph - N/A Fog Light Freezing Fog
7:00 AM 24 °F - 22 °F 87%  in 0 mi South 29.9 mph - - Fog Heavy Fog
7:55 AM 24.8 °F 7.3 °F 21.2 °F 86% 29.77 in 0.0 mi SW 32.2 mph - N/A Fog Light Freezing Fog
8:00 AM 25 °F - 22 °F 84%  in 0 mi SW 32.2 mph - - Fog Heavy Fog
8:55 AM 24.8 °F 7.6 °F 23.0 °F 93% 29.77 in 0.0 mi WSW 31.1 mph - N/A Fog Light Freezing Fog
9:00 AM 25 °F - 22 °F 85%  in 0 mi WSW 31.1 mph - - Fog Heavy Fog
9:55 AM 26.6 °F 10.3 °F 23.0 °F 86% 29.77 in 0.0 mi SW 29.9 mph - N/A Fog Light Freezing Fog
10:00 AM 26 °F - 23 °F 83%  in 0 mi SW 29.9 mph - - Fog Heavy Fog
10:55 AM 26.6 °F 10.6 °F 23.0 °F 86% 29.80 in - SW 28.8 mph - N/A Fog Light Freezing Fog
11:00 AM 26 °F - 23 °F 83%  in 0 mi SW 28.8 mph - - Snow Light Snow
11:55 AM 26.6 °F 10.6 °F 23.0 °F 86% 29.80 in - SW 28.8 mph - N/A Fog Light Freezing Fog
12:00 PM 27 °F - 23 °F 80%  in 0 mi SW 28.8 mph - - Snow Light Snow
12:55 PM 28.4 °F 13.3 °F 24.8 °F 86% 29.77 in 0.0 mi SW 27.6 mph - N/A Fog Light Freezing Fog
1:00 PM 28 °F - 24 °F 80%  in 0 mi SW 27.6 mph - - Snow Light Snow
1:55 PM 28.4 °F 14.4 °F 24.8 °F 86% 29.77 in - SW 23.0 mph - N/A Fog Light Freezing Fog
2:00 PM 29 °F - 25 °F 78%  in 0 mi SW 23.0 mph - - Snow Light Snow
2:55 PM 28.4 °F 13.0 °F 24.8 °F 86% 29.77 in - SW 28.8 mph - N/A Fog Light Freezing Fog
3:00 PM 29 °F - 24 °F 75%  in 0 mi SW 28.8 mph - -  
3:55 PM 28.4 °F 13.3 °F 24.8 °F 86% 29.77 in - SW 27.6 mph - N/A Fog Light Freezing Fog
4:00 PM 29 °F - 24 °F 75%  in 0 mi SW 27.6 mph - - Snow Light Snow
4:55 PM 28.4 °F 15.1 °F 23.0 °F 80% 29.80 in 0.0 mi SW 20.7 mph - N/A Fog Light Freezing Fog
5:00 PM 28 °F - 23 °F 76%  in 0 mi SW 20.7 mph - -  
5:55 PM 28.4 °F 16.6 °F 23.0 °F 80% 29.80 in 0.0 mi SSW 16.1 mph - N/A Fog Light Freezing Fog
6:00 PM 28 °F - 23 °F 76%  in 0 mi SSW 16.1 mph - -   Unknown
6:55 PM 28.4 °F 14.4 °F 24.8 °F 86% 29.80 in 0.0 mi SW 23.0 mph - N/A Fog Light Freezing Fog
7:00 PM 29 °F - 24 °F 75%  in 0 mi SW 23.0 mph - - Fog Heavy Fog
7:55 PM 28.4 °F 15.1 °F 24.8 °F 86% 29.80 in 0.0 mi SW 20.7 mph - N/A Fog Light Freezing Fog
8:00 PM 29 °F - 24 °F 75%  in 0 mi SW 20.7 mph - - Fog Heavy Fog
8:55 PM 30.2 °F 17.8 °F 24.8 °F 80% 29.80 in 0.4 mi SW 19.6 mph - N/A Fog Light Freezing Fog
9:00 PM 29 °F - 25 °F 77%  in 0 mi SW 19.6 mph - - Fog Heavy Fog
9:55 PM 30.2 °F 20.8 °F 24.8 °F 80% 29.86 in 0.4 mi SW 11.5 mph - N/A Fog Light Freezing Fog
10:00 PM 30 °F - 25 °F 73%  in 0 mi SW 11.5 mph - - Fog Heavy Fog
10:55 PM 32.0 °F 24.2 °F 23.0 °F 69% 29.86 in 0.1 mi SSW 9.2 mph - N/A Fog Light Freezing Fog
11:00 PM 31 °F - 23 °F 63%  in 0 mi SSW 9.2 mph - - Fog Heavy Fog
11:55 PM 30.2 °F 23.4 °F 23.0 °F 75% 29.89 in 0.0 mi SSW 6.9 mph - N/A Fog Light Freezing Fog